Погода в Саруле

Россия / Республика Калмыкия     45°49′09″N   45°28′33″E
темп.,
°C
ветер,
м/с
пор.,
м/с
влажн.,
%
обл.,
%
осадки,
мм/ч
давл.,
гПа
погр.,
м
17 июня, чт
чт1700:00+25в511530 0.0 1007328
03:00+25всв715560 0.0 1006392
06:00+26в81750100 0.0 1005604
09:00+33вюв10162862 0.0 10051510
12:00+37юв101619100 0.0 10062298
15:00+37юв111615100 0.0 10052787
18:00+34вюв8102665 0.0 10061484
21:00+25з910592 0.2 1009328
18 июня, пт
пт1800:00+22зсз813677 0.0 1011380
03:00+21з711670 0.0 1013428
06:00+20з67760 0.1 1014378
09:00+25зсз55600 0.1 1015816
12:00+29зсз22450 0.0 10141158
15:00+32в33360 0.0 10141831
18:00+32ююв24330 0.0 10141391
21:00+28вюв711485 0.0 1016583
19 июня, сб
сб1900:00+26в511485 0.0 1016496
03:00+25всв714362 0.0 1017520
06:00+24всв8143433 0.0 1018612
09:00+29в1012325 0.0 10181035
12:00+33в1112220 0.0 10171688
15:00+34в111220100 0.0 10151801
18:00+32вюв9122419 0.0 10151316
21:00+27в816306 0.0 1016593
20 июня, вс
вс2000:00+25всв817280 0.0 1016558
03:00+24в717300 0.0 1015479
06:00+24всв715300 0.0 1015453
09:00+31в911301 0.0 1015733
12:00+35вюв1112242 0.0 10141381
15:00+34вюв13151957 0.0 10141343
18:00+32вюв10142126 0.0 10151221
21:00+27в916270 0.0 1016568
21 июня, пн
пн2100:00+25в716280 0.0 1015422
03:00+24в716380 0.0 1014403
06:00+26в815450 0.0 1014520
09:00+33вюв1115160 0.0 10141563
12:00+36вюв1213120 0.0 10141997
15:00+35вюв1213130 0.0 10131884
18:00+32вюв1013170 0.0 10141417
21:00+28в611240 0.0 1014357